site,time,unit,value
Newdigate,10/11/2023 00:00:00,MW,3.4930364000000003
Newdigate,10/11/2023 00:05:00,MW,3.4073563
Newdigate,10/11/2023 00:10:00,MW,3.4196707
Newdigate,10/11/2023 00:15:00,MW,3.4105132
Newdigate,10/11/2023 00:20:00,MW,3.3825777
Newdigate,10/11/2023 00:25:00,MW,3.3820739
Newdigate,10/11/2023 00:30:00,MW,3.3962638
Newdigate,10/11/2023 00:35:00,MW,3.4226151000000002
Newdigate,10/11/2023 00:40:00,MW,3.4047364
Newdigate,10/11/2023 00:45:00,MW,3.3888667999999997
Newdigate,10/11/2023 00:50:00,MW,3.3752043
Newdigate,10/11/2023 00:55:00,MW,3.3717356
Newdigate,10/11/2023 01:00:00,MW,3.3774028
Newdigate,10/11/2023 01:05:00,MW,3.3694454
Newdigate,10/11/2023 01:10:00,MW,3.3873661999999998
Newdigate,10/11/2023 01:15:00,MW,3.3792622999999997
Newdigate,10/11/2023 01:20:00,MW,3.3930147
Newdigate,10/11/2023 01:25:00,MW,3.3850754
Newdigate,10/11/2023 01:30:00,MW,3.4420013
Newdigate,10/11/2023 01:35:00,MW,3.4327357000000003
Newdigate,10/11/2023 01:40:00,MW,3.4090195
Newdigate,10/11/2023 01:45:00,MW,3.4151876
Newdigate,10/11/2023 01:50:00,MW,3.4220344
Newdigate,10/11/2023 01:55:00,MW,3.4128895999999997
Newdigate,10/11/2023 02:00:00,MW,3.4115233
Newdigate,10/11/2023 02:05:00,MW,3.3783383
Newdigate,10/11/2023 02:10:00,MW,3.3915977
Newdigate,10/11/2023 02:15:00,MW,3.4095362
Newdigate,10/11/2023 02:20:00,MW,3.4147964
Newdigate,10/11/2023 02:25:00,MW,3.4447696
Newdigate,10/11/2023 02:30:00,MW,3.4029544
Newdigate,10/11/2023 02:35:00,MW,3.3979415
Newdigate,10/11/2023 02:40:00,MW,3.3861356000000002
Newdigate,10/11/2023 02:45:00,MW,3.3509356
Newdigate,10/11/2023 02:50:00,MW,3.3378161
Newdigate,10/11/2023 02:55:00,MW,3.3240914
Newdigate,10/11/2023 03:00:00,MW,3.3092148999999997
Newdigate,10/11/2023 03:05:00,MW,3.3161488
Newdigate,10/11/2023 03:10:00,MW,3.3048357
Newdigate,10/11/2023 03:15:00,MW,3.2991425999999997
Newdigate,10/11/2023 03:20:00,MW,3.2952760000000003
Newdigate,10/11/2023 03:25:00,MW,3.3067731
Newdigate,10/11/2023 03:30:00,MW,3.298515
Newdigate,10/11/2023 03:35:00,MW,3.3081695
Newdigate,10/11/2023 03:40:00,MW,3.3290792
Newdigate,10/11/2023 03:45:00,MW,3.3040436
Newdigate,10/11/2023 03:50:00,MW,3.3338734
Newdigate,10/11/2023 03:55:00,MW,3.3175611
Newdigate,10/11/2023 04:00:00,MW,3.3146226
Newdigate,10/11/2023 04:05:00,MW,3.3334488
Newdigate,10/11/2023 04:10:00,MW,3.3398567000000003
Newdigate,10/11/2023 04:15:00,MW,3.3661127
Newdigate,10/11/2023 04:20:00,MW,3.3777098
Newdigate,10/11/2023 04:25:00,MW,3.4001433
Newdigate,10/11/2023 04:30:00,MW,3.3654791
Newdigate,10/11/2023 04:35:00,MW,3.3365706
Newdigate,10/11/2023 04:40:00,MW,3.2990166
Newdigate,10/11/2023 04:45:00,MW,3.2943898
Newdigate,10/11/2023 04:50:00,MW,3.3159932000000003
Newdigate,10/11/2023 04:55:00,MW,3.354017
Newdigate,10/11/2023 05:00:00,MW,3.3386597
Newdigate,10/11/2023 05:05:00,MW,3.3337129
Newdigate,10/11/2023 05:10:00,MW,3.3716171
Newdigate,10/11/2023 05:15:00,MW,3.3425643000000003
Newdigate,10/11/2023 05:20:00,MW,3.3699486
Newdigate,10/11/2023 05:25:00,MW,3.3668046
Newdigate,10/11/2023 05:30:00,MW,3.3933637
Newdigate,10/11/2023 05:35:00,MW,3.402821
Newdigate,10/11/2023 05:40:00,MW,3.4028064000000002
Newdigate,10/11/2023 05:45:00,MW,3.4523048
Newdigate,10/11/2023 05:50:00,MW,3.4986815
Newdigate,10/11/2023 05:55:00,MW,3.505264
Newdigate,10/11/2023 06:00:00,MW,3.6213087
Newdigate,10/11/2023 06:05:00,MW,3.6892419
Newdigate,10/11/2023 06:10:00,MW,3.7086580000000002
Newdigate,10/11/2023 06:15:00,MW,3.7092457
Newdigate,10/11/2023 06:20:00,MW,3.7152061
Newdigate,10/11/2023 06:25:00,MW,3.7730676
Newdigate,10/11/2023 06:30:00,MW,3.8174964
Newdigate,10/11/2023 06:35:00,MW,4.2896693
Newdigate,10/11/2023 06:40:00,MW,4.3426025
Newdigate,10/11/2023 06:45:00,MW,4.3041813
Newdigate,10/11/2023 06:50:00,MW,4.125526
Newdigate,10/11/2023 06:55:00,MW,4.0117082
Newdigate,10/11/2023 07:00:00,MW,4.1268647000000005
Newdigate,10/11/2023 07:05:00,MW,4.1578865
Newdigate,10/11/2023 07:10:00,MW,4.1452002
Newdigate,10/11/2023 07:15:00,MW,4.1127291
Newdigate,10/11/2023 07:20:00,MW,4.0911476
Newdigate,10/11/2023 07:25:00,MW,4.1421551999999995
Newdigate,10/11/2023 07:30:00,MW,4.1580648
Newdigate,10/11/2023 07:35:00,MW,4.4469767000000004
Newdigate,10/11/2023 07:40:00,MW,4.604744
Newdigate,10/11/2023 07:45:00,MW,4.5916939
Newdigate,10/11/2023 07:50:00,MW,4.571130999999999
Newdigate,10/11/2023 07:55:00,MW,4.638904500000001
Newdigate,10/11/2023 08:00:00,MW,4.5446795
Newdigate,10/11/2023 08:05:00,MW,4.663020700000001
Newdigate,10/11/2023 08:10:00,MW,4.6362851
Newdigate,10/11/2023 08:15:00,MW,4.6715365
Newdigate,10/11/2023 08:20:00,MW,4.6363695
Newdigate,10/11/2023 08:25:00,MW,4.6484392
Newdigate,10/11/2023 08:30:00,MW,4.655695
Newdigate,10/11/2023 08:35:00,MW,4.601982
Newdigate,10/11/2023 08:40:00,MW,4.5986415
Newdigate,10/11/2023 08:45:00,MW,4.628502
Newdigate,10/11/2023 08:50:00,MW,4.766909
Newdigate,10/11/2023 08:55:00,MW,4.8302682
Newdigate,10/11/2023 09:00:00,MW,4.7633975
Newdigate,10/11/2023 09:05:00,MW,4.7872534
Newdigate,10/11/2023 09:10:00,MW,4.7414287999999996
Newdigate,10/11/2023 09:15:00,MW,4.6709727999999995
Newdigate,10/11/2023 09:20:00,MW,4.7321607
Newdigate,10/11/2023 09:25:00,MW,4.7323769
Newdigate,10/11/2023 09:30:00,MW,4.6871358999999995
Newdigate,10/11/2023 09:35:00,MW,4.6288735
Newdigate,10/11/2023 09:40:00,MW,4.542396699999999
Newdigate,10/11/2023 09:45:00,MW,4.5995563
Newdigate,10/11/2023 09:50:00,MW,4.7415647
Newdigate,10/11/2023 09:55:00,MW,4.7252188
Newdigate,10/11/2023 10:00:00,MW,4.6750126
Newdigate,10/11/2023 10:05:00,MW,4.6422975
Newdigate,10/11/2023 10:10:00,MW,4.5883563
Newdigate,10/11/2023 10:15:00,MW,4.6576177
Newdigate,10/11/2023 10:20:00,MW,4.7215434
Newdigate,10/11/2023 10:25:00,MW,4.6500234
Newdigate,10/11/2023 10:30:00,MW,4.6137745
Newdigate,10/11/2023 10:35:00,MW,4.6095455
Newdigate,10/11/2023 10:40:00,MW,4.6056836
Newdigate,10/11/2023 10:45:00,MW,4.550159
Newdigate,10/11/2023 10:50:00,MW,4.5163607
Newdigate,10/11/2023 10:55:00,MW,4.5005448
Newdigate,10/11/2023 11:00:00,MW,4.5363315
Newdigate,10/11/2023 11:05:00,MW,4.5495633
Newdigate,10/11/2023 11:10:00,MW,4.508198500000001
Newdigate,10/11/2023 11:15:00,MW,4.5104071999999995
Newdigate,10/11/2023 11:20:00,MW,4.4934863
Newdigate,10/11/2023 11:25:00,MW,4.5470264
Newdigate,10/11/2023 11:30:00,MW,4.5601247
Newdigate,10/11/2023 11:35:00,MW,4.5424739
Newdigate,10/11/2023 11:40:00,MW,4.538308300000001
Newdigate,10/11/2023 11:45:00,MW,4.4704756
Newdigate,10/11/2023 11:50:00,MW,4.5258166
Newdigate,10/11/2023 11:55:00,MW,4.5886093
Newdigate,10/11/2023 12:00:00,MW,4.6148544000000005
Newdigate,10/11/2023 12:05:00,MW,4.7513819999999996
Newdigate,10/11/2023 12:10:00,MW,4.8082742
Newdigate,10/11/2023 12:15:00,MW,4.8495602
Newdigate,10/11/2023 12:20:00,MW,4.8825907
Newdigate,10/11/2023 12:25:00,MW,4.8335491
Newdigate,10/11/2023 12:30:00,MW,4.8841495
Newdigate,10/11/2023 12:35:00,MW,4.8300353
Newdigate,10/11/2023 12:40:00,MW,4.8505161999999995
Newdigate,10/11/2023 12:45:00,MW,4.9187168
Newdigate,10/11/2023 12:50:00,MW,4.8939522
Newdigate,10/11/2023 12:55:00,MW,4.8850271
Newdigate,10/11/2023 13:00:00,MW,4.4245364
Newdigate,10/11/2023 13:05:00,MW,4.4858252
Newdigate,10/11/2023 13:10:00,MW,4.5088520999999995
Newdigate,10/11/2023 13:15:00,MW,4.4941318
Newdigate,10/11/2023 13:20:00,MW,4.4344258
Newdigate,10/11/2023 13:25:00,MW,4.3637853
Newdigate,10/11/2023 13:30:00,MW,4.4064201
Newdigate,10/11/2023 13:35:00,MW,4.6951336999999995
Newdigate,10/11/2023 13:40:00,MW,4.6158463
Newdigate,10/11/2023 13:45:00,MW,4.6319886
Newdigate,10/11/2023 13:50:00,MW,4.5948373
Newdigate,10/11/2023 13:55:00,MW,4.632217600000001
Newdigate,10/11/2023 14:00:00,MW,4.5853323999999995
Newdigate,10/11/2023 14:05:00,MW,4.6025536
Newdigate,10/11/2023 14:10:00,MW,4.680778
Newdigate,10/11/2023 14:15:00,MW,4.6656629
Newdigate,10/11/2023 14:20:00,MW,4.721981899999999
Newdigate,10/11/2023 14:25:00,MW,4.7076736
Newdigate,10/11/2023 14:30:00,MW,4.7008303
Newdigate,10/11/2023 14:35:00,MW,4.7466279
Newdigate,10/11/2023 14:40:00,MW,4.7842864
Newdigate,10/11/2023 14:45:00,MW,4.807695600000001
Newdigate,10/11/2023 14:50:00,MW,4.844719
Newdigate,10/11/2023 14:55:00,MW,4.8462636
Newdigate,10/11/2023 15:00:00,MW,4.770376300000001
Newdigate,10/11/2023 15:05:00,MW,4.742974
Newdigate,10/11/2023 15:10:00,MW,4.7768556
Newdigate,10/11/2023 15:15:00,MW,4.8417987
Newdigate,10/11/2023 15:20:00,MW,4.7985278
Newdigate,10/11/2023 15:25:00,MW,4.8126064
Newdigate,10/11/2023 15:30:00,MW,4.9133187
Newdigate,10/11/2023 15:35:00,MW,4.904682
Newdigate,10/11/2023 15:40:00,MW,4.99871
Newdigate,10/11/2023 15:45:00,MW,5.0765128
Newdigate,10/11/2023 15:50:00,MW,5.1206376
Newdigate,10/11/2023 15:55:00,MW,5.2127333
Newdigate,10/11/2023 16:00:00,MW,5.3030302
Newdigate,10/11/2023 16:05:00,MW,5.33555
Newdigate,10/11/2023 16:10:00,MW,5.4012231
Newdigate,10/11/2023 16:15:00,MW,5.4650891
Newdigate,10/11/2023 16:20:00,MW,5.504652
Newdigate,10/11/2023 16:25:00,MW,5.5462381999999995
Newdigate,10/11/2023 16:30:00,MW,5.5635189
Newdigate,10/11/2023 16:35:00,MW,5.5431346999999995
Newdigate,10/11/2023 16:40:00,MW,5.6231216
Newdigate,10/11/2023 16:45:00,MW,5.669136
Newdigate,10/11/2023 16:50:00,MW,5.7293918999999995
Newdigate,10/11/2023 16:55:00,MW,5.8020625
Newdigate,10/11/2023 17:00:00,MW,5.8320296
Newdigate,10/11/2023 17:05:00,MW,5.8400988
Newdigate,10/11/2023 17:10:00,MW,5.8242259
Newdigate,10/11/2023 17:15:00,MW,5.8135121
Newdigate,10/11/2023 17:20:00,MW,5.7963480999999994
Newdigate,10/11/2023 17:25:00,MW,5.7314176
Newdigate,10/11/2023 17:30:00,MW,5.775378399999999
Newdigate,10/11/2023 17:35:00,MW,5.7412664
Newdigate,10/11/2023 17:40:00,MW,5.6910854
Newdigate,10/11/2023 17:45:00,MW,5.7362348999999995
Newdigate,10/11/2023 17:50:00,MW,5.768529
Newdigate,10/11/2023 17:55:00,MW,5.8354143999999994
Newdigate,10/11/2023 18:00:00,MW,5.887313300000001
Newdigate,10/11/2023 18:05:00,MW,5.801222600000001
Newdigate,10/11/2023 18:10:00,MW,5.848433
Newdigate,10/11/2023 18:15:00,MW,5.8563336999999995
Newdigate,10/11/2023 18:20:00,MW,5.9385875
Newdigate,10/11/2023 18:25:00,MW,5.9352148
Newdigate,10/11/2023 18:30:00,MW,5.9422505999999995
Newdigate,10/11/2023 18:35:00,MW,5.907168
Newdigate,10/11/2023 18:40:00,MW,5.8832553999999995
Newdigate,10/11/2023 18:45:00,MW,5.7979759
Newdigate,10/11/2023 18:50:00,MW,5.7763794
Newdigate,10/11/2023 18:55:00,MW,5.8538978
Newdigate,10/11/2023 19:00:00,MW,5.5800971
Newdigate,10/11/2023 19:05:00,MW,5.4030325999999995
Newdigate,10/11/2023 19:10:00,MW,5.4632584
Newdigate,10/11/2023 19:15:00,MW,5.4544645
Newdigate,10/11/2023 19:20:00,MW,5.5270092
Newdigate,10/11/2023 19:25:00,MW,5.3650649999999995
Newdigate,10/11/2023 19:30:00,MW,5.3443327
Newdigate,10/11/2023 19:35:00,MW,5.2858391000000005
Newdigate,10/11/2023 19:40:00,MW,5.2555544
Newdigate,10/11/2023 19:45:00,MW,5.20207
Newdigate,10/11/2023 19:50:00,MW,5.1206258
Newdigate,10/11/2023 19:55:00,MW,5.0522622
Newdigate,10/11/2023 20:00:00,MW,5.0529136
Newdigate,10/11/2023 20:05:00,MW,4.9803326
Newdigate,10/11/2023 20:10:00,MW,4.9380233
Newdigate,10/11/2023 20:15:00,MW,4.9152837
Newdigate,10/11/2023 20:20:00,MW,4.9938062
Newdigate,10/11/2023 20:25:00,MW,5.2014971
Newdigate,10/11/2023 20:30:00,MW,5.2035906
Newdigate,10/11/2023 20:35:00,MW,5.1325331
Newdigate,10/11/2023 20:40:00,MW,5.127022
Newdigate,10/11/2023 20:45:00,MW,5.1206788
Newdigate,10/11/2023 20:50:00,MW,5.1154858
Newdigate,10/11/2023 20:55:00,MW,4.815386
Newdigate,10/11/2023 21:00:00,MW,4.6942054
Newdigate,10/11/2023 21:05:00,MW,5.0484825
Newdigate,10/11/2023 21:10:00,MW,4.693895599999999
Newdigate,10/11/2023 21:15:00,MW,4.6098355
Newdigate,10/11/2023 21:20:00,MW,4.5234094
Newdigate,10/11/2023 21:25:00,MW,4.4703338
Newdigate,10/11/2023 21:30:00,MW,4.4278127000000005
Newdigate,10/11/2023 21:35:00,MW,4.3650207000000005
Newdigate,10/11/2023 21:40:00,MW,4.3624761
Newdigate,10/11/2023 21:45:00,MW,4.3264601
Newdigate,10/11/2023 21:50:00,MW,4.3005507000000005
Newdigate,10/11/2023 21:55:00,MW,4.2059422
Newdigate,10/11/2023 22:00:00,MW,4.2141582
Newdigate,10/11/2023 22:05:00,MW,4.1491515
Newdigate,10/11/2023 22:10:00,MW,4.1215644
Newdigate,10/11/2023 22:15:00,MW,4.0316447
Newdigate,10/11/2023 22:20:00,MW,3.9992460000000003
Newdigate,10/11/2023 22:25:00,MW,3.9791906
Newdigate,10/11/2023 22:30:00,MW,3.9822867000000004
Newdigate,10/11/2023 22:35:00,MW,3.9676422000000002
Newdigate,10/11/2023 22:40:00,MW,3.9687116
Newdigate,10/11/2023 22:45:00,MW,3.8926305
Newdigate,10/11/2023 22:50:00,MW,3.8583518000000003
Newdigate,10/11/2023 22:55:00,MW,3.8403687
Newdigate,10/11/2023 23:00:00,MW,3.9406072
Newdigate,10/11/2023 23:05:00,MW,3.8544659
Newdigate,10/11/2023 23:10:00,MW,3.7177962
Newdigate,10/11/2023 23:15:00,MW,3.6708195
Newdigate,10/11/2023 23:20:00,MW,3.6415116000000003
Newdigate,10/11/2023 23:25:00,MW,3.5865129
Newdigate,10/11/2023 23:30:00,MW,3.5801138000000003
Newdigate,10/11/2023 23:35:00,MW,3.5742351999999995
Newdigate,10/11/2023 23:40:00,MW,3.5184328000000002
Newdigate,10/11/2023 23:45:00,MW,3.5528125
Newdigate,10/11/2023 23:50:00,MW,3.5447335
Newdigate,10/11/2023 23:55:00,MW,3.5218594000000003
